FENGYUN 1C DEB, 33730

Orbit data source: Space-Track

FENGYUN 1C DEB, 33730 is space debris in SSO originally from a launch on Mon, 10 May 1999 UTC launched from the Taiyaun Space Center, China (TSC). Fengyun 1C debris stems from the Chinese weather satellite Fengyun-1C, which was intentionally destroyed by a Chinese anti-satellite missile in 2007. This event dramatically increased the amount of space debris, with thousands of trackable fragments posing hazards to satellites and human spaceflight. The Fengyun 1C debris cloud has become a focal point in discussions about space sustainability and the need for international regulations to prevent the creation of new debris.

Loading next visibility...
Identifier
33730, 1999-025DHT
Orbit
SSO
Country
Flag of CNCN / PRC
Related business
Manufacturer
Unknown
Mission
Spacecraft
Bus & Motor
Unknown
Mass
Unknown
Launch date (UTC)
1999-05-10 (27 years ago)
Launch vehicle
Unknown
Launch site
Taiyaun Space Center, China (TSC)
Object type
Payload
Rocket body
Debris
Shape & HBR
Unknown shape, 0.1 m
Radar Cross Section
Small (<0.1 m²)

Expand to show TLE details & history
Last TLE update: 2 weeks ago

TLE from 2 weeks ago
0 FENGYUN 1C DEB
1 33730U 99025DHT 26137.43593131  .00004492  00000-0  81890-3 0  9997
2 33730  99.0384 215.6011 0037188 250.6583 109.0595 14.66165596979590
Epoch: 2026-05-17T10:27Z
TLE epoch observation values (Epoch: 2026-05-17T10:27:44.465Z)
Latitude
-0.00003°
Longitude
-176.47274°
Altitude
684.954 km
Speed
7.509 km/s
True Right ascension
14h 22m 24s
True Declination
0° 00' 00"
Sunlit
Object was in full shadow at epoch
Visualization orbit readout
Latitude
Unknown
Longitude
Unknown
Altitude
Unknown
Speed
Unknown
Apparent Right ascension
Unknown
Apparent Declination
Unknown
Sunlit
N/A
Visualization observer readout
Local Sidereal Time
19:46:42
Azimuth
Unknown
Elevation
Unknown
Doppler factor
Unknown
Orbital elements
Apogee altitude
696.661 km
Perigee altitude
644.237 km
Semi-major axis
7,048.586 km
Eccentricity
0.00372
Inclination
99.0384°
RAAN
215.6011°
Arg. of periapsis
250.6583°
True anomaly
109.46167°
Mean anomaly
109.0595°
Eccentric anomaly
109.26065°
Mean motion
3.66767 °/min
Orbital period
98.15 mins
BSTAR
0.0008189
Loading maneuver chart data...
Computing Atmospheric mass density...
Loading historical data...
Loading historical data...
Loading historical data...
Loading historical data...
Loading historical data...
Loading historical data...
Loading historical data...

Documentation

Showing up to 5 results
|